Location: Newark
(48.6461°N, 4.3644°W)
Time: 15:18:43
(UTC+00:00)

Transit 4A - Pass Details

Date: 28 January 2020
Orbit: 872 x 973 km, 66.8° (Epoch: 26 February)

Event Time Altitude Azimuth Distance (km) Brightness Sun altitude
Rises 08:18:04 0° 258° (WSW) 3,522 10.5 2.8°
Reaches altitude 10° 08:21:02 10° 271° (W) 2,568 9.7 3.2°
Maximum altitude 08:25:54 26° 327° (NNW) 1,694 8.8 3.9°
Drops below altitude 10° 08:30:43 10° 22° (NNE) 2,539 10.1 4.5°
Sets 08:33:39 0° 35° (NE) 3,474 10.9 4.9°
